Regional Weather Roundup
Issued by NWS

Home | Current Version | Previous Version | Graphics & Text | Print | Product List | Glossary On
Versions: 1 2 3 4 5 6 7 8 9 10 11 12 13 14 15 16 17 18 19 20 21 22 23 24 25 26 27 28 29 30 31 32 33 34 35 36 37 38 39 40 41 42 43 44 45 46 47 48 49 50
000
ASUS44 KMEG 281610
RWRTN
TENNESSEE HOURLY STATE WEATHER ROUNDUP
NATIONAL WEATHER SERVICE MEMPHIS TN
1000 AM CST WED JAN 28 2015

TNZ002-004-019-021-049-052-054-088>092-281700-
WEST TENNESSEE

CITY           SKY/WX    TMP DP  RH WIND       PRES   REMARKS
MEMPHIS INTL   MOSUNNY   44  28  53 S8        30.31R
NWS MEMPHIS      N/A     43 N/A N/A MISG        N/A
JACKSON        SUNNY     39  27  62 SE9       30.31S WCI  33
DYERSBURG      SUNNY     39  21  48 S7        30.34R WCI  34
UNION CITY     SUNNY     34  30  86 SE8       30.30S WCI  27
PARIS          SUNNY     36  27  69 SE12      30.30S WCI  27
LEXINGTON      SUNNY     37  27  65 SE8       30.30S WCI  31
SAVANNAH         N/A     39  28  65 VRB3      30.32S
$$

TNZ008-025-027-028-033-062-065-066-281700-
NORTH MIDDLE TENNESSEE

CITY           SKY/WX    TMP DP  RH WIND       PRES   REMARKS
NASHVILLE      MOSUNNY   37  22  54 SE6       30.35S WCI  32
CLARKSVILLE    SUNNY     36  25  64 SE14      30.33F WCI  27
SMYRNA         SUNNY     38  24  57 VRB7      30.36F WCI  33
COOKEVILLE     SUNNY     34  19  55 VRB3      30.33S
CROSSVILLE     SUNNY     31  13  47 NE7       30.31R WCI  24
$$

TNZ061-075-076-078-094-096-097-281700-
SOUTH MIDDLE TENNESSEE

CITY           SKY/WX    TMP DP  RH WIND       PRES   REMARKS
FAYETTEVILLE   SUNNY     37  25  60 MISG      30.31S
TULLAHOMA      SUNNY     36  21  55 E6        30.32S WCI  31
WINCHESTER     SUNNY     37  23  56 E8        30.32F WCI  31
MCMINNVILLE    SUNNY     36  21  55 NE8       30.32F WCI  29
COLUMBIA       SUNNY     37  34  87 E9        30.32S WCI  31
SHELBYVILLE    SUNNY     37  25  60 E8        30.34S WCI  31
$$

TNZ017-018-042-046-047-281700-
NORTHEAST TENNESSEE

CITY           SKY/WX    TMP DP  RH WIND       PRES   REMARKS
TRI CITIES     SUNNY     27  16  63 SW3       30.33R
ELIZABETHTON   SUNNY     27  12  54 SW7       30.31S WCI  19
$$

TNZ012-013-036-069-073-074-281700-
CENTRAL EAST TENNESSEE

CITY           SKY/WX    TMP DP  RH WIND       PRES   REMARKS
KNOXVILLE      SUNNY     32  16  51 N5        30.35R WCI  27
OAK RIDGE      SUNNY     33  14  45 E6        30.37R WCI  28
GATLINBURG     SUNNY     30  19  64 VRB5      30.33S WCI  25
MORRISTOWN     SUNNY     30  12  47 VRB5      30.34R WCI  25
$$

TNZ083-085-099-281700-
SOUTHEAST TENNESSEE

CITY           SKY/WX    TMP DP  RH WIND       PRES   REMARKS
CHATTANOOGA    SUNNY     38  20  48 N8        30.36R WCI  32
$$

SKY/WX REPORTED AS FAIR MEANS FEW OR NO CLOUDS BELOW
12 THOUSAND FEET.



USA.gov is the U.S. government's official web portal to all federal, state and local government web resources and services.